Location: Borz?cin
(51.1714°N, 19.6030°E)
Time: 16:42:48
(UTC+00:00)

DELTA 2 DEB (DPAF) - Pass Details

Date: 19 May 2025
Orbit: 538 x 548 km, 98.4° (Epoch: 21 June)

Event Time Altitude Azimuth Distance (km) Brightness Sun altitude
Rises 21:05:09 0° 13° (NNE) 2,733 8.3 -16.0°
Reaches altitude 10° 21:07:18 10° 11° (NNE) 1,832 7.3 -16.1°
Maximum altitude 21:11:15 72° 287° (WNW) 578 4.0 -16.3°
Enters shadow 21:13:39 22° 207° (SSW) 1,211 5.2 -16.5°
